Location: Street
(51.1247°N, 2.7429°W)
Time: 16:14:01
(UTC+00:00)

SR - Pass Details

Date: 30 November 2020
Orbit: 575 x 880 km, 66.7° (Epoch: 26 January)

Event Time Altitude Azimuth Distance (km) Brightness Sun altitude
Rises 00:43:24 0° 322° (NW) 3,081 - -59.3°
Reaches altitude 10° 00:46:04 10° 336° (NNW) 2,216 - -59.2°
Maximum altitude 00:50:14 25° 31° (NNE) 1,517 - -59.0°
Drops below altitude 10° 00:54:40 10° 85° (E) 2,376 - -58.7°
Sets 00:57:37 0° 99° (E) 3,355 - -58.5°
